Find KUIPER-00451

NORAD ID: 68945 Int'l Des: 2026-098AC Owner: KUIP Country: US Constellation: amazon-leo operational
LEOCIRCULAR

リアルタイム位置

3D地球を読み込み中...

KUIPER-00451について

説明を読み込み中...

次回通過

Passes for default location (London). Set your location on the main map for personalized predictions.

高度履歴

Loading altitude history...

軌道要素

1 68945U 26098AC 26125.83336806 .00055783 00000-0 16878-2 0 9990
2 68945 51.8788 271.8247 0012585 356.3435 280.9103 15.33580974 1461
Epoch: May 5, 2026 • Age: 7 hours

現在のステータス

高度 456.8 km
速度 7.65 km/s
衛星直下点 9.99°N, 14.34°E
打ち上げ日 Apr 30, 2026
運用期間 6 days
タイプ internet

技術仕様

分類 Payload
質量 490.00 kg
乾燥質量 490.00 kg
総質量 490.00 kg
長さ 1.80 m
直径 0.70 m
スパン 5.00 m
形状 Box + 2 pan
製造者 KUIP
バスタイプ Kuiper
フェーズステータス In Orbit
所有者/国 KUIP/US

Most Searched